Find Starlink 32040

NORAD ID: 60109 Int'l Des: 2024-117 Owner: SPXS Country: US Constellation: starlink operational
LEOCIRCULAR

Current View

Loading 3D Globe...

About Starlink 32040

Starlink 32040 (NORAD 60109) is a starlink constellation satellite (v2 mini) launched Jun 23, 2024 by SPXS of US. It operates in LEO, CIRCULAR orbit with a mass of 730.00 kg.

Upcoming Passes

Passes for default location (London). Set your location on the main map for personalized predictions.

Altitude History

Loading altitude history...

Two-Line Element Set

1 60109U 24117U 26264.56348534 -.00001204 00000-0 -24512-4 0 9996
2 60109 53.1585 204.6188 0001367 87.7069 272.4090 15.34389036126913
Epoch: Sep 21, 2026 • Age: 21 hours

Current Status

Altitude 467.9 km
Apogee / Perigee N/A
Velocity 7.64 km/s
Sub-Earth Point 51.31°N, 115.11°E
Launch Date Jun 23, 2024
Age 2.2 years
Type internet

Technical Details

Classification Payload
Mass 730.00 kg
Dry Mass 700.00 kg
Length 0.30 m
Span 29.00 m
Shape ? Box + pan
Manufacturer SPXS
Bus Type Starlink V2M
Phase Status In Orbit
Owner/State SPXS/US

Most Searched